Weather History for Rice Lake, WI

Change the Weather History Date:

Monday, May 18, 2009

  Actual Average Record
Temperature  
Mean Temperature 56 °F -  
Max Temperature 72 °F 63 °F 87 °F (2012)
Min Temperature 41 °F 42 °F 32 °F (2002)
Degree Days  
Heating Degree Days 8    
Growing Degree Days 6 (Base 50)    
Moisture  
Dew Point 39 °F    
Average Humidity 49    
Maximum Humidity 71    
Minimum Humidity 33    
Precipitation  
Precipitation 0.00 in - - ()
Sea Level Pressure  
Sea Level Pressure 30.07 in    
Wind  
Wind Speed 10 mph (South)    
Max Wind Speed 22 mph    
Max Gust Speed 30 mph    
Visibility 10 miles    
Events      
Averages and records for this station are not official NWS values.
T = Trace of Precipitation, MM = Missing Value Source: NWS Daily Summary

Daily Weather History Graph

Daily Weather History Graph

Search for Another Location

Airport:

Trip Planner

Search our weather history database for the weather conditions in past years. The results will help you decide how hot, cold, wet, or windy it might be!

Date:

Astronomy

May. 18, 2009 Rise Set
Actual Time 5:33 AM CDT 8:34 PM CDT
Civil Twilight 4:58 AM CDT 9:09 PM CDT
Nautical Twilight 4:13 AM CDT 9:54 PM CDT
Astronomical Twilight 3:19 AM CDT 10:49 PM CDT
Moon 2:21 AM CDT (5/18) 2:06 PM CDT (5/18)
Length of Visible Light 16h 11m
Length of Day
15h 01m
Last Quarter, 36% of the Moon is Illuminated
May 18
Last Quarter
May 24
New
May 30
First Quarter
Jun 7
Full
Jun 15
Last Quarter

Hourly Weather History & Observations

Time (CDT) Temp. Windchill Dew Point Humidity Pressure Visibility Wind Dir Wind Speed Gust Speed Precip Events Conditions
12:15 AM 45.0 °F 41.2 °F 31.5 °F 59% 30.21 in 10.0 mi SSE 6.9 mph - N/A   Clear
12:35 AM 45.7 °F 43.4 °F 30.2 °F 55% 30.21 in 10.0 mi South 4.6 mph - N/A   Clear
12:55 AM 46.8 °F - 30.9 °F 54% 30.21 in 10.0 mi SSE 4.6 mph - N/A   Clear
1:15 AM 45.5 °F 42.5 °F 30.7 °F 56% 30.21 in 10.0 mi SSE 5.8 mph - N/A   Clear
1:35 AM 45.9 °F 42.9 °F 30.0 °F 54% 30.21 in 10.0 mi SE 5.8 mph - N/A   Clear
1:55 AM 45.1 °F 43.7 °F 30.4 °F 56% 30.20 in 10.0 mi SE 3.5 mph - N/A   Clear
2:15 AM 41.5 °F 38.6 °F 31.5 °F 67% 30.19 in 10.0 mi SE 4.6 mph - N/A   Clear
2:35 AM 43.9 °F 41.3 °F 31.3 °F 61% 30.18 in 10.0 mi ESE 4.6 mph - N/A   Clear
2:55 AM 43.9 °F 42.3 °F 32.0 °F 63% 30.18 in 10.0 mi SE 3.5 mph - N/A   Scattered Clouds
3:15 AM 44.2 °F 41.8 °F 33.1 °F 65% 30.18 in 10.0 mi SE 4.6 mph - N/A   Scattered Clouds
3:35 AM 42.4 °F 40.7 °F 33.8 °F 71% 30.18 in 10.0 mi ESE 3.5 mph - N/A   Mostly Cloudy
3:55 AM 45.0 °F 41.8 °F 35.8 °F 70% 30.17 in 10.0 mi SE 5.8 mph - N/A   Overcast
4:15 AM 45.9 °F 42.3 °F 36.1 °F 69% 30.16 in 10.0 mi SE 6.9 mph - N/A   Overcast
4:35 AM 45.5 °F 41.3 °F 36.5 °F 71% 30.16 in 10.0 mi SE 8.1 mph - N/A   Mostly Cloudy
4:55 AM 45.7 °F 42.0 °F 36.5 °F 70% 30.16 in 10.0 mi SE 6.9 mph - N/A   Overcast
5:15 AM 46.4 °F 42.9 °F 36.5 °F 68% 30.15 in 10.0 mi SE 6.9 mph - N/A   Overcast
5:35 AM 45.9 °F 42.9 °F 36.5 °F 70% 30.14 in 10.0 mi ESE 5.8 mph - N/A   Overcast
5:55 AM 46.4 °F 43.5 °F 36.7 °F 69% 30.13 in 10.0 mi ESE 5.8 mph - N/A   Overcast
6:15 AM 47.3 °F - 36.7 °F 67% 30.13 in 10.0 mi SE 8.1 mph - N/A   Mostly Cloudy
6:35 AM 47.3 °F - 37.0 °F 68% 30.13 in 10.0 mi SE 9.2 mph - N/A   Scattered Clouds
6:55 AM 48.4 °F - 37.0 °F 65% 30.12 in 10.0 mi SE 9.2 mph - N/A   Clear
7:15 AM 49.6 °F - 37.4 °F 63% 30.12 in 10.0 mi SSE 9.2 mph - N/A   Clear
7:35 AM 50.9 °F - 37.0 °F 59% 30.11 in 10.0 mi SSE 11.5 mph - N/A   Clear
7:55 AM 52.3 °F - 37.6 °F 57% 30.11 in 10.0 mi SSE 10.4 mph - N/A   Clear
8:15 AM 53.6 °F - 37.2 °F 54% 30.10 in 10.0 mi SSE 15.0 mph - N/A   Clear
8:35 AM 55.4 °F - 36.9 °F 50% 30.09 in 10.0 mi South 12.7 mph 21.9 mph N/A   Clear
8:55 AM 56.7 °F - 36.3 °F 47% 30.09 in 10.0 mi South 17.3 mph 27.6 mph N/A   Clear
9:15 AM 57.4 °F - 36.5 °F 46% 30.08 in 10.0 mi South 18.4 mph 29.9 mph N/A   Clear
9:35 AM 58.5 °F - 37.9 °F 46% 30.08 in 10.0 mi South 17.3 mph 25.3 mph N/A   Clear
10:15 AM 61.7 °F - 37.4 °F 41% 30.06 in 10.0 mi SSW 16.1 mph 28.8 mph N/A   Clear
10:35 AM 62.8 °F - 37.6 °F 39% 30.06 in 10.0 mi South 19.6 mph 27.6 mph N/A   Clear
10:55 AM 63.0 °F - 38.7 °F 41% 30.06 in 10.0 mi South 15.0 mph 26.5 mph N/A   Clear
11:15 AM 64.0 °F - 39.0 °F 40% 30.05 in 10.0 mi SSW 20.7 mph 27.6 mph N/A   Clear
11:35 AM 63.9 °F - 38.1 °F 39% 30.04 in 10.0 mi South 21.9 mph 26.5 mph N/A   Clear
11:55 AM 64.9 °F - 38.8 °F 38% 30.03 in 10.0 mi SSW 20.7 mph 25.3 mph N/A   Clear
12:16 PM 65.8 °F - 39.7 °F 38% 30.03 in 10.0 mi SSW 17.3 mph 28.8 mph N/A   Clear
12:35 PM 66.6 °F - 40.5 °F 38% 30.03 in 10.0 mi SSW 18.4 mph 26.5 mph N/A   Clear
12:55 PM 67.5 °F - 40.3 °F 37% 30.02 in 10.0 mi SSW 19.6 mph 25.3 mph N/A   Clear
1:15 PM 67.8 °F - 40.5 °F 37% 30.02 in 10.0 mi SSW 17.3 mph 27.6 mph N/A   Clear
1:35 PM 68.0 °F - 41.0 °F 37% 30.01 in 10.0 mi South 18.4 mph 28.8 mph N/A   Clear
1:55 PM 68.4 °F - 41.7 °F 38% 30.02 in 10.0 mi SSW 16.1 mph 24.2 mph N/A   Clear
2:15 PM 69.1 °F - 40.8 °F 36% 30.01 in 10.0 mi South 16.1 mph 23.0 mph N/A   Clear
2:35 PM 69.8 °F - 40.5 °F 34% 30.01 in 10.0 mi SSW 17.3 mph 26.5 mph N/A   Clear
2:55 PM 70.7 °F - 41.7 °F 35% 30.00 in 10.0 mi SW 18.4 mph 23.0 mph N/A   Clear
3:15 PM 71.1 °F - 40.3 °F 33% 29.99 in 10.0 mi South 19.6 mph 26.5 mph N/A   Clear
3:35 PM 71.2 °F - 41.5 °F 34% 29.98 in 10.0 mi South 17.3 mph 21.9 mph N/A   Clear
3:55 PM 71.4 °F - 41.7 °F 34% 29.98 in 10.0 mi SSW 13.8 mph 20.7 mph N/A   Clear
4:15 PM 72.1 °F - 41.9 °F 34% 29.98 in 10.0 mi SSW 15.0 mph 19.6 mph N/A   Clear
4:35 PM 71.2 °F - 41.9 °F 35% 29.98 in 10.0 mi South 13.8 mph - N/A   Clear
4:55 PM 71.2 °F - 43.0 °F 36% 29.98 in 10.0 mi SSW 12.7 mph 20.7 mph N/A   Clear
5:15 PM 71.6 °F - 42.8 °F 35% 29.98 in 10.0 mi SSW 12.7 mph 19.6 mph N/A   Clear
5:35 PM 71.1 °F - 42.8 °F 36% 29.99 in 10.0 mi SSW 10.4 mph 21.9 mph N/A   Clear
5:55 PM 71.2 °F - 43.2 °F 36% 29.99 in 10.0 mi South 13.8 mph 18.4 mph N/A   Clear
6:15 PM 71.6 °F - 44.1 °F 37% 29.98 in 10.0 mi South 10.4 mph - N/A   Clear
6:35 PM 72.1 °F - 43.7 °F 36% 29.98 in 10.0 mi South 13.8 mph - N/A   Clear
6:55 PM 71.1 °F - 43.7 °F 37% 29.99 in 10.0 mi SSW 11.5 mph - N/A   Clear
7:15 PM 70.7 °F - 44.2 °F 39% 29.98 in 10.0 mi SSW 10.4 mph 18.4 mph N/A   Clear
7:35 PM 69.8 °F - 45.3 °F 41% 29.98 in 10.0 mi South 10.4 mph - N/A   Clear
7:55 PM 69.1 °F - 45.1 °F 42% 29.98 in 10.0 mi South 10.4 mph - N/A   Clear
8:15 PM 66.7 °F - 46.8 °F 49% 29.98 in 10.0 mi South 6.9 mph - N/A   Clear
8:35 PM 64.9 °F - 46.6 °F 51% 29.98 in 10.0 mi SSE 6.9 mph - N/A   Clear
8:55 PM 64.6 °F - 46.0 °F 51% 29.98 in 10.0 mi SE 6.9 mph - N/A   Clear
9:15 PM 63.5 °F - 46.2 °F 53% 29.98 in 10.0 mi SE 9.2 mph - N/A   Clear
9:35 PM 62.6 °F - 46.6 °F 56% 29.99 in 10.0 mi SE 8.1 mph - N/A   Clear
9:55 PM 62.6 °F - 46.6 °F 56% 29.99 in 10.0 mi SE 9.2 mph - N/A   Clear
10:15 PM 61.9 °F - 46.4 °F 57% 29.99 in 10.0 mi SE 8.1 mph - N/A   Clear
10:35 PM 61.2 °F - 46.6 °F 59% 29.99 in 10.0 mi SE 9.2 mph - N/A   Clear
10:55 PM 60.6 °F - 46.8 °F 60% 29.99 in 10.0 mi SE 9.2 mph - N/A   Clear
11:15 PM 59.9 °F - 47.1 °F 63% 29.99 in 10.0 mi SE 8.1 mph - N/A   Scattered Clouds
11:35 PM 59.9 °F - 47.3 °F 63% 29.99 in 10.0 mi ESE 5.8 mph - N/A   Overcast
11:55 PM 59.9 °F - 47.3 °F 63% 29.99 in 10.0 mi SE 8.1 mph - N/A   Overcast